Fairbanks, AK

6:43 AM AKST on December 09, 2019 (GMT -0900)
Fairbanks International

Weather History for PAFA - November, 2019

Change the Weather History Date:

Tuesday, November 19, 2019

  Actual Average Record
Temperature  
Mean Temperature 4 °F 0 °F  
Max Temperature 20 °F 9 °F 47 °F (1949)
Min Temperature -11 °F -8 °F -36 °F (2011)
Degree Days  
Heating Degree Days 60 65  
Month to date heating degree days 1038 1144  
Since 1 July heating degree days 2870 3403  
Cooling Degree Days 0 0  
Month to date cooling degree days 0 0  
Year to date cooling degree days 123 61  
Moisture  
Dew Point 3 °F    
Average Humidity 79    
Maximum Humidity 87    
Minimum Humidity 72    
Precipitation  
Precipitation 0.10 in 0.02 in 0.33 in (1964)
Month to date precipitation 1.57 0.44  
Year to date precipitation 15.76 9.94  
Snow  
Snow 2.50 in 0.50 in 9.70 in (1935)
Month to date snowfall 19.8 8.5  
Since 1 July snowfall 23.1 21.1  
Since 1 September snowfall 23.1 21.1  
Snow Depth 12.00 in    
Sea Level Pressure  
Sea Level Pressure 29.55 in    
Wind  
Wind Speed 5 mph ()    
Max Wind Speed 12 mph    
Max Gust Speed -    
Visibility 6.5 miles    
Events Fog , Snow    
T = Trace of Precipitation, MM = Missing Value Source: Averaged Metar Reports

Daily Weather History Graph

Daily Weather History Graph

Search for Another Location

Airport or City:

Astronomy

Nov. 19, 2019 Rise Set
Actual Time 9:40 AM AKST 3:32 PM AKST
Civil Twilight 8:34 AM AKST 4:38 PM AKST
Nautical Twilight 7:31 AM AKST 5:41 PM AKST
Astronomical Twilight 6:32 AM AKST 6:39 PM AKST
Moon 11:15 PM AKST (11/19) 3:29 PM AKST (11/19)
Length of Visible Light 8h 03m
Length of Day
5h 52m
Waning Gibbous, 50% of the Moon is Illuminated
Nov 19
Waning Gibbous
Nov 19
Last Quarter
Nov 26
New
Dec 3
First Quarter
Dec 11
Full

Hourly Weather History & Observations

Time (AKST) Temp. Windchill Dew Point Humidity Pressure Visibility Wind Dir Wind Speed Gust Speed Precip Events Conditions
12:53 AM 1.0 °F -8.7 °F -4.0 °F 79% 29.95 in 9.0 mi NNE 4.6 mph - N/A Snow Light Snow
1:53 AM -0.9 °F - -6.0 °F 79% 29.94 in 10.0 mi Calm Calm - N/A   Mostly Cloudy
2:53 AM -5.1 °F -15.8 °F -9.0 °F 83% 29.91 in 10.0 mi NE 4.6 mph - N/A   Scattered Clouds
3:53 AM -9.0 °F -20.4 °F -11.9 °F 87% 29.90 in 10.0 mi NE 4.6 mph - N/A   Partly Cloudy
4:53 AM -9.9 °F -27.5 °F -16.1 °F 74% 29.86 in 10.0 mi ENE 9.2 mph - N/A   Clear
5:53 AM -0.0 °F -17.1 °F -5.1 °F 79% 29.84 in 10.0 mi North 11.5 mph - N/A   Clear
6:53 AM -0.9 °F -8.9 °F -7.1 °F 75% 29.81 in 10.0 mi NNE 3.5 mph - N/A   Scattered Clouds
7:53 AM -2.0 °F -13.9 °F -8.0 °F 76% 29.77 in 10.0 mi NE 5.8 mph - N/A   Scattered Clouds
8:53 AM 1.0 °F -11.7 °F -6.0 °F 72% 29.73 in 10.0 mi NNE 6.9 mph - N/A   Mostly Cloudy
9:53 AM 1.9 °F -7.6 °F -4.0 °F 76% 29.68 in 10.0 mi NNE 4.6 mph - N/A   Mostly Cloudy
10:53 AM 1.0 °F - -4.0 °F 79% 29.65 in 10.0 mi Calm Calm - N/A   Overcast
11:53 AM 8.1 °F -2.0 °F 1.0 °F 73% 29.58 in 10.0 mi North 5.8 mph - N/A   Overcast
12:53 PM 8.1 °F -2.0 °F 1.9 °F 76% 29.54 in 2.5 mi NE 5.8 mph - N/A Snow Light Snow
1:09 PM 10.0 °F 0.4 °F 3.9 °F 76% 29.48 in 1.5 mi NNE 5.8 mph - N/A Snow Light Snow
1:53 PM 10.0 °F 0.4 °F 5.0 °F 80% 29.50 in 0.8 mi NE 5.8 mph - N/A Snow Light Snow
2:11 PM 10.9 °F 1.4 °F 6.1 °F 81% 29.44 in 0.5 mi NE 5.8 mph - N/A Fog , Snow Light Snow
2:31 PM 12.0 °F 2.7 °F 7.0 °F 80% 29.42 in 0.8 mi North 5.8 mph - N/A Snow Light Snow
2:47 PM 12.2 °F 2.9 °F 8.6 °F 85% 29.41 in 0.5 mi North 5.8 mph - N/A Fog , Snow Light Snow
2:53 PM 12.2 °F 2.9 °F 8.6 °F 85% 29.41 in 0.5 mi North 5.8 mph - N/A Fog , Snow Snow
3:04 PM 14.0 °F 2.9 °F 9.0 °F 80% 29.40 in 0.5 mi North 8.1 mph - N/A Snow Light Snow
3:09 PM 14.0 °F 2.0 °F 9.0 °F 80% 29.40 in 1.5 mi North 9.2 mph - N/A Snow Light Snow
3:48 PM 15.8 °F 3.4 °F 10.4 °F 79% 29.37 in 2.5 mi North 10.4 mph - N/A Snow Light Snow
4:22 PM 16.0 °F 3.6 °F 12.0 °F 84% 29.33 in 4.0 mi NNE 10.4 mph - N/A Snow Light Snow
4:53 PM 17.1 °F 5.0 °F 12.0 °F 81% 29.35 in 7.0 mi NNE 10.4 mph - N/A Snow Light Snow
5:53 PM 18.0 °F 6.9 °F 12.0 °F 78% 29.31 in 9.0 mi NNE 9.2 mph - N/A Snow Light Snow
6:53 PM 19.0 °F 10.0 °F 12.9 °F 77% 29.31 in 9.0 mi North 6.9 mph - N/A Snow Light Snow
7:53 PM 18.0 °F 8.7 °F 10.9 °F 74% 29.31 in 9.0 mi North 6.9 mph - N/A Snow Light Snow
8:53 PM 16.0 °F - 10.9 °F 81% 29.31 in 9.0 mi Calm Calm - N/A Snow Light Snow
9:53 PM 18.0 °F 12.7 °F 12.9 °F 81% 29.33 in 9.0 mi East 3.5 mph - N/A Snow Light Snow
10:53 PM 18.0 °F - 12.9 °F 81% 29.34 in 6.0 mi Calm Calm - N/A Snow Light Snow
11:53 PM 19.0 °F 11.1 °F 14.0 °F 81% 29.33 in 9.0 mi NNE 5.8 mph - N/A Snow Light Snow